Location: Rounton
(54.4000°N, 1.3500°W)
Time: 01:56:59
(UTC+01:00)

FENGYUN 1C DEB - Pass Details

Date: 29 June 2022
Orbit: 737 x 860 km, 99.3° (Epoch: 14 August)

Event Time Altitude Azimuth Distance (km) Brightness Sun altitude
Rises 00:03:34 0° 218° (SW) 3,221 ? -11.1°
Reaches altitude 10° 00:07:07 10° 244° (WSW) 2,280 ? -11.2°
Maximum altitude 00:09:34 14° 274° (W) 2,033 ? -11.3°
Drops below altitude 10° 00:12:01 10° 304° (WNW) 2,267 ? -11.4°
Sets 00:15:32 0° 330° (NNW) 3,187 ? -11.5°
